TimeEDT,TemperatureF,Dew PointF,Humidity,Sea Level PressureIn,VisibilityMPH,Wind Direction,Wind SpeedMPH,Gust SpeedMPH,PrecipitationIn,Events,Conditions,WindDirDegrees,DateUTC
12:39 AM,60.8,53.6,77,29.42,9.0,ESE,6.9,48.3,0.07,Rain,Light Rain,110,2012-10-30 04:39:00
12:54 AM,61.0,53.1,75,29.39,9.0,East,15.0,33.4,0.07,Rain,Light Rain,80,2012-10-30 04:54:00
1:15 AM,60.8,53.6,77,29.42,10.0,East,15.0,35.7,0.01,Rain,Light Rain,90,2012-10-30 05:15:00
1:54 AM,61.0,53.1,75,29.40,10.0,East,11.5,33.4,0.01,Rain,Light Rain,90,2012-10-30 05:54:00
2:54 AM,59.0,54.0,83,29.42,10.0,East,8.1,19.6,0.07,Rain,Light Rain,100,2012-10-30 06:54:00
3:54 AM,61.0,54.0,78,29.42,10.0,ESE,8.1,19.6,0.01,,Overcast,110,2012-10-30 07:54:00
4:54 AM,61.0,55.0,81,29.42,7.0,Variable,5.8,-,0.01,Rain,Light Rain,0,2012-10-30 08:54:00
5:54 AM,59.0,55.0,87,29.44,3.0,Variable,4.6,-,0.07,Rain,Rain,0,2012-10-30 09:54:00
6:54 AM,60.1,54.0,80,29.46,10.0,SSE,8.1,-,0.01,,Scattered Clouds,150,2012-10-30 10:54:00
7:54 AM,61.0,55.0,81,29.49,10.0,Variable,3.5,-,0.00,,Mostly Cloudy,0,2012-10-30 11:54:00
8:34 AM,60.8,53.6,77,29.52,1.8,SSE,11.5,25.3,0.05,Rain,Heavy Rain,160,2012-10-30 12:34:00
8:48 AM,59.0,53.6,82,29.52,3.0,SSE,8.1,17.3,0.12,Rain,Light Rain,150,2012-10-30 12:48:00
8:54 AM,59.0,53.1,81,29.52,9.0,SE,11.5,17.3,0.12,Rain,Light Rain,140,2012-10-30 12:54:00
9:54 AM,60.1,54.0,80,29.54,9.0,SE,6.9,21.9,0.01,Rain,Light Rain,140,2012-10-30 13:54:00
10:54 AM,59.0,55.9,90,29.55,3.0,Variable,4.6,-,0.06,Rain,Rain,0,2012-10-30 14:54:00
11:03 AM,60.8,55.4,82,29.55,2.5,Variable,4.6,-,0.02,Rain,Rain,0,2012-10-30 15:03:00
11:11 AM,60.8,55.4,82,29.55,6.0,SSE,8.1,-,0.02,Rain,Light Rain,160,2012-10-30 15:11:00
11:54 AM,60.1,54.0,80,29.56,4.0,SSE,8.1,23.0,0.07,Rain,Rain,160,2012-10-30 15:54:00
12:54 PM,62.1,55.0,78,29.55,10.0,Variable,6.9,-,0.01,,Overcast,0,2012-10-30 16:54:00
1:54 PM,64.0,53.1,67,29.54,10.0,SSE,10.4,26.5,N/A,,Mostly Cloudy,150,2012-10-30 17:54:00
2:54 PM,66.0,51.1,59,29.54,10.0,SSE,8.1,21.9,N/A,,Scattered Clouds,150,2012-10-30 18:54:00
3:54 PM,66.0,50.0,56,29.56,10.0,SE,11.5,19.6,N/A,,Mostly Cloudy,130,2012-10-30 19:54:00
4:54 PM,63.0,52.0,67,29.57,10.0,SE,8.1,-,0.00,Rain,Light Rain,140,2012-10-30 20:54:00
5:54 PM,62.1,52.0,70,29.57,10.0,SSE,5.8,-,0.00,,Scattered Clouds,150,2012-10-30 21:54:00
6:54 PM,62.1,51.1,67,29.57,10.0,Variable,4.6,-,N/A,,Partly Cloudy,0,2012-10-30 22:54:00
7:54 PM,57.9,53.1,84,29.56,10.0,Calm,Calm,-,0.01,Rain,Light Rain,0,2012-10-30 23:54:00
8:54 PM,59.0,54.0,83,29.55,10.0,Calm,Calm,-,0.04,Rain,Light Rain,0,2012-10-31 00:54:00
9:54 PM,57.0,54.0,89,29.55,5.0,Calm,Calm,-,0.02,Rain,Rain,0,2012-10-31 01:54:00
10:14 PM,57.2,55.4,94,29.53,10.0,Variable,3.5,-,0.00,,Overcast,0,2012-10-31 02:14:00
10:54 PM,55.9,54.0,93,29.54,10.0,Calm,Calm,-,0.02,Rain,Light Rain,0,2012-10-31 02:54:00
11:14 PM,55.4,53.6,94,29.56,1.8,SSW,11.5,-,0.12,Rain,Heavy Rain,200,2012-10-31 03:14:00
11:21 PM,55.4,53.6,94,29.56,1.8,SSE,5.8,17.3,0.23,Rain,Heavy Rain,160,2012-10-31 03:21:00
11:26 PM,55.4,53.6,94,29.55,3.0,Calm,Calm,-,0.24,Rain,Rain,0,2012-10-31 03:26:00
11:40 PM,55.4,53.6,94,29.54,10.0,Calm,Calm,-,0.24,Rain,Light Rain,0,2012-10-31 03:40:00
11:54 PM,55.0,53.1,93,29.54,10.0,Calm,Calm,-,0.24,Rain,Light Rain,0,2012-10-31 03:54:00